Lakeville, MN

4:08 PM CDT on June 27, 2017 (GMT -0500)
Airlake

Weather History for KLVN - December, 2012

Change the Weather History Date:

Saturday, December 8, 2012

  Actual Average Record
Temperature  
Mean Temperature 24 °F -  
Max Temperature 30 °F 27 °F 52 °F (1990)
Min Temperature 21 °F 13 °F -20 °F (1978)
Degree Days  
Heating Degree Days 40    
Moisture  
Dew Point 23 °F    
Average Humidity 92    
Maximum Humidity 100    
Minimum Humidity 80    
Precipitation  
Precipitation 0.00 in - - ()
Sea Level Pressure  
Sea Level Pressure 30.01 in    
Wind  
Wind Speed 2 mph (East)    
Max Wind Speed 8 mph    
Max Gust Speed -    
Visibility 7 miles    
Events      
Averages and records for this station are not official NWS values.
T = Trace of Precipitation, MM = Missing Value Source: NWS Daily Summary

Daily Weather History Graph

Daily Weather History Graph

Search for Another Location

Airport or City:

Trip Planner

Search our weather history database for the weather conditions in past years. The results will help you decide how hot, cold, wet, or windy it might be!

Date:

Astronomy

Dec. 08, 2012 Rise Set
Actual Time 7:37 AM CST 4:32 PM CST
Civil Twilight 7:04 AM CST 5:05 PM CST
Nautical Twilight 6:27 AM CST 5:42 PM CST
Astronomical Twilight 5:52 AM CST 6:17 PM CST
Moon 1:52 AM CST (12/8) 1:12 PM CST (12/8)
Length of Visible Light 10h 01m
Length of Day
8h 55m
Waning Crescent, 28% of the Moon is Illuminated
Dec 8
Waning Crescent
Dec 13
New
Dec 19
First Quarter
Dec 28
Full
Jan 4
Last Quarter

Hourly Weather History & Observations

Time (CST) Temp. Windchill Dew Point Humidity Pressure Visibility Wind Dir Wind Speed Gust Speed Precip Events Conditions
12:13 AM 21.2 °F - 21.2 °F 100% 30.02 in 4.0 mi Calm Calm - N/A   Overcast
12:33 AM 23.0 °F - 23.0 °F 100% 30.02 in 5.0 mi Calm Calm - N/A   Overcast
12:52 AM 23.0 °F 18.4 °F 21.2 °F 93% 30.02 in 4.0 mi North 3.5 mph - N/A   Overcast
1:13 AM 24.8 °F 20.5 °F 23.0 °F 93% 30.02 in 4.0 mi NNE 3.5 mph - N/A   Overcast
1:33 AM 23.0 °F - 23.0 °F 100% 30.02 in 4.0 mi Calm Calm - N/A   Overcast
1:52 AM 24.8 °F 19.1 °F 23.0 °F 93% 30.02 in 4.0 mi North 4.6 mph - N/A   Overcast
2:12 AM 24.8 °F 20.5 °F 23.0 °F 93% 30.02 in 5.0 mi North 3.5 mph - N/A   Overcast
2:52 AM 24.8 °F 20.5 °F 23.0 °F 93% 30.02 in 7.0 mi NNE 3.5 mph - N/A   Overcast
3:12 AM 24.8 °F - 23.0 °F 93% 30.02 in 7.0 mi Calm Calm - N/A   Overcast
3:33 AM 23.0 °F - 21.2 °F 93% 30.02 in 7.0 mi Calm Calm - N/A   Overcast
3:52 AM 23.0 °F - 21.2 °F 93% 30.02 in 5.0 mi Calm Calm - N/A   Overcast
4:12 AM 23.0 °F - 23.0 °F 100% 30.02 in 7.0 mi Calm Calm - N/A   Overcast
4:33 AM 24.8 °F - 23.0 °F 93% 30.02 in 7.0 mi Calm Calm - N/A   Overcast
5:12 AM 24.8 °F - 23.0 °F 93% 30.03 in 7.0 mi Calm Calm - N/A   Overcast
5:32 AM 24.8 °F - 23.0 °F 93% 30.03 in 7.0 mi Calm Calm - N/A   Overcast
5:52 AM 24.8 °F - 23.0 °F 93% 30.03 in 7.0 mi Calm Calm - N/A   Overcast
6:13 AM 24.8 °F - 23.0 °F 93% 30.03 in 7.0 mi Calm Calm - N/A   Overcast
6:32 AM 24.8 °F - 23.0 °F 93% 30.03 in 7.0 mi Calm Calm - N/A   Overcast
6:52 AM 24.8 °F - 23.0 °F 93% 30.03 in 7.0 mi Calm Calm - N/A   Overcast
7:13 AM 24.8 °F - 23.0 °F 93% 30.03 in 5.0 mi Calm Calm - N/A   Overcast
7:32 AM 24.8 °F - 23.0 °F 93% 30.02 in 4.0 mi Calm Calm - N/A   Overcast
7:52 AM 24.8 °F - 23.0 °F 93% 30.03 in 4.0 mi Calm Calm - N/A   Overcast
8:13 AM 24.8 °F - 23.0 °F 93% 30.04 in 4.0 mi Calm Calm - N/A   Overcast
8:32 AM 24.8 °F 20.5 °F 23.0 °F 93% 30.03 in 4.0 mi East 3.5 mph - N/A   Overcast
8:53 AM 24.8 °F 19.1 °F 23.0 °F 93% 30.03 in 5.0 mi East 4.6 mph - N/A   Overcast
9:12 AM 24.8 °F 20.5 °F 24.8 °F 100% 30.03 in 5.0 mi East 3.5 mph - N/A   Overcast
9:32 AM 24.8 °F - 21.2 °F 86% 30.04 in 5.0 mi Calm Calm - N/A   Scattered Clouds
9:53 AM 26.6 °F - 23.0 °F 86% 30.05 in 5.0 mi Calm Calm - N/A   Clear
10:12 AM 26.6 °F 22.6 °F 23.0 °F 86% 30.05 in 7.0 mi ESE 3.5 mph - N/A   Clear
10:32 AM 26.6 °F 20.0 °F 23.0 °F 86% 30.05 in 7.0 mi SE 5.8 mph - N/A   Mostly Cloudy
10:53 AM 26.6 °F 19.1 °F 24.8 °F 93% 30.05 in 7.0 mi SE 6.9 mph - N/A   Overcast
11:12 AM 26.6 °F 20.0 °F 24.8 °F 93% 30.04 in 7.0 mi SSE 5.8 mph - N/A   Overcast
11:32 AM 26.6 °F 19.1 °F 24.8 °F 93% 30.04 in 7.0 mi SSE 6.9 mph - N/A   Overcast
11:53 AM 26.6 °F 21.2 °F 23.0 °F 86% 30.03 in 7.0 mi SSE 4.6 mph - N/A   Overcast
12:12 PM 26.6 °F 19.1 °F 24.8 °F 93% 30.02 in 7.0 mi SSE 6.9 mph - N/A   Overcast
12:32 PM 26.6 °F - 24.8 °F 93% 30.02 in 7.0 mi Calm Calm - N/A   Overcast
12:53 PM 26.6 °F - 24.8 °F 93% 30.02 in 7.0 mi Calm Calm - N/A   Overcast
1:12 PM 26.6 °F 22.6 °F 24.8 °F 93% 30.02 in 10.0 mi ESE 3.5 mph - N/A   Mostly Cloudy
1:32 PM 26.6 °F 22.6 °F 24.8 °F 93% 30.01 in 10.0 mi SE 3.5 mph - N/A   Scattered Clouds
1:53 PM 26.6 °F 22.6 °F 24.8 °F 93% 30.01 in 10.0 mi ESE 3.5 mph - N/A   Clear
2:12 PM 26.6 °F - 24.8 °F 93% 30.01 in 7.0 mi Calm Calm - N/A   Clear
2:32 PM 26.6 °F - 24.8 °F 93% 30.01 in 10.0 mi Calm Calm - N/A   Clear
2:53 PM 26.6 °F - 24.8 °F 93% 30.01 in 10.0 mi Calm Calm - N/A   Clear
3:12 PM 26.6 °F 22.6 °F 24.8 °F 93% 30.00 in 10.0 mi ENE 3.5 mph - N/A   Clear
3:32 PM 26.6 °F 21.2 °F 24.8 °F 93% 29.99 in 7.0 mi ENE 4.6 mph - N/A   Scattered Clouds
3:53 PM 26.6 °F 21.2 °F 24.8 °F 93% 29.99 in 7.0 mi East 4.6 mph - N/A   Clear
4:12 PM 24.8 °F 20.5 °F 23.0 °F 93% 30.00 in 10.0 mi East 3.5 mph - N/A   Clear
4:32 PM 24.8 °F 20.5 °F 21.2 °F 86% 30.00 in 7.0 mi East 3.5 mph - N/A   Clear
4:52 PM 23.0 °F 17.0 °F 21.2 °F 93% 30.00 in 5.0 mi East 4.6 mph - N/A   Clear
5:12 PM 23.0 °F 17.0 °F 21.2 °F 93% 29.99 in 5.0 mi ENE 4.6 mph - N/A   Clear
5:32 PM 21.2 °F 16.4 °F 21.2 °F 100% 29.99 in 7.0 mi East 3.5 mph - N/A   Clear
5:53 PM 24.8 °F 20.5 °F 23.0 °F 93% 29.99 in 10.0 mi East 3.5 mph - N/A   Clear
6:12 PM 24.8 °F 20.5 °F 21.2 °F 86% 29.99 in 10.0 mi East 3.5 mph - N/A   Clear
6:32 PM 24.8 °F 20.5 °F 23.0 °F 93% 30.00 in 10.0 mi East 3.5 mph - N/A   Clear
6:53 PM 24.8 °F 19.1 °F 21.2 °F 86% 30.00 in 10.0 mi East 4.6 mph - N/A   Clear
7:12 PM 24.8 °F 20.5 °F 23.0 °F 93% 30.01 in 10.0 mi ESE 3.5 mph - N/A   Clear
7:32 PM 24.8 °F 19.1 °F 23.0 °F 93% 30.01 in 10.0 mi East 4.6 mph - N/A   Clear
7:53 PM 24.8 °F 19.1 °F 23.0 °F 93% 30.00 in 10.0 mi East 4.6 mph - N/A   Clear
8:12 PM 24.8 °F 17.9 °F 21.2 °F 86% 30.00 in 10.0 mi East 5.8 mph - N/A   Clear
8:32 PM 24.8 °F 17.9 °F 23.0 °F 93% 30.00 in 10.0 mi East 5.8 mph - N/A   Clear
8:53 PM 24.8 °F 16.9 °F 23.0 °F 93% 29.99 in 10.0 mi East 6.9 mph - N/A   Clear
9:12 PM 26.6 °F 19.1 °F 24.8 °F 93% 29.99 in 10.0 mi East 6.9 mph - N/A   Clear
9:32 PM 26.6 °F 21.2 °F 24.8 °F 93% 29.99 in 10.0 mi East 4.6 mph - N/A   Clear
9:53 PM 26.6 °F 18.2 °F 24.8 °F 93% 29.98 in 10.0 mi East 8.1 mph - N/A   Mostly Cloudy
10:12 PM 28.4 °F 23.3 °F 24.8 °F 86% 29.99 in 10.0 mi ESE 4.6 mph - N/A   Mostly Cloudy
10:32 PM 28.4 °F 21.2 °F 24.8 °F 86% 29.99 in 10.0 mi ESE 6.9 mph - N/A   Mostly Cloudy
10:52 PM 28.4 °F 20.4 °F 24.8 °F 86% 29.98 in 10.0 mi ESE 8.1 mph - N/A   Overcast
11:12 PM 28.4 °F 23.3 °F 24.8 °F 86% 30.00 in 10.0 mi ESE 4.6 mph - N/A   Overcast
11:32 PM 28.4 °F 23.3 °F 24.8 °F 86% 30.00 in 10.0 mi ESE 4.6 mph - N/A   Overcast
11:52 PM 30.2 °F 24.3 °F 24.8 °F 80% 30.00 in 10.0 mi East 5.8 mph - N/A   Overcast